Flag for Russia Weather past 2 weeks in Kaliningrad, Russia

Now
54 °F

Scattered clouds.


Feels Like: 52 °F
Forecast: 46 / 69 °F
Wind: 6 mph from Southeast

Location: Kaliningrad/Khrabrovo Airport

Current Time: Sep 16, 2014 at 11:05:35 AM

Latest Report: Sep 16, 2014 at 10:30 AM


Visibility: N/A

Pressure: 30.33 "Hg

Humidity: 82%

Dew point: 48 °F

Location of KaliningradLocation

Historic Weather in Kaliningrad — Graph

°F

Kaliningrad temperature yesterday

Maximum temperature yesterday: 66 °F (at 2:30 PM)
Minimum temperature yesterday: 48 °F (at 11:00 PM)
Average temperature yesterday: 57 °F

Past Weeks' High & Low Weather Summary

 TemperatureHumidityPressure
High75 °F (Sep 8, 1:30 PM)94% (Sep 2, 4:30 AM)30.42 "Hg (Sep 2, 4:30 AM)
Low43 °F (Sep 3, 6:30 AM)36% (Sep 5, 4:00 PM)29.86 "Hg (Sep 10, 7:00 AM)
Average59 °F75%30.15 "Hg
* Reported Sep 1 9:00 AM — Sep 16 9:30 AM, Kaliningrad, Weather by CustomWeather, © 2014

Note: Actual official high and low records may vary slightly from our data, if they occured in-between our weather recording intervals... More about our weather records

Advertising

Kaliningrad weather history for previous 24 hours

 ConditionsComfort  
Time TempWeatherWind HumidityBarometerVisibility
9:30 AM
Sep 16
50 °FClear.3 mph88%30.33 "Hg5 mi
9:00 AM48 °FClear.3 mph87%30.33 "Hg5 mi
8:30 AM45 °FClear.1 mph93%30.33 "Hg4 mi
8:00 AM43 °FFog.1 mph93%30.33 "Hg2 mi
7:30 AM43 °FFog.1 mph87%30.30 "Hg1 mi
7:00 AM43 °FFog.3 mph87%30.30 "Hg1 mi
6:30 AM43 °FFog.3 mph87%30.30 "Hg1 mi
6:00 AM43 °FFog.1 mph87%30.30 "Hg1 mi
5:30 AM43 °FFog.1 mph87%30.30 "Hg0 mi
5:00 AM43 °FFog.3 mph93%30.30 "Hg5 mi
4:00 AM45 °FClear.3 mph93%30.30 "Hg10 mi
3:00 AM46 °FClear.6 mph87%30.30 "Hg10 mi
2:00 AM48 °FClear.3 mph82%30.30 "Hg10 mi
1:00 AM48 °FClear.3 mph82%30.30 "Hg10 mi
12:00 AM46 °FFog.1 mph82%30.30 "Hg5 mi
11:30 PM
Sep 15
48 °FFog.No wind82%30.30 "Hg5 mi
11:00 PM48 °FClear.1 mph82%30.30 "Hg10 mi
10:30 PM50 °FClear.3 mph82%30.30 "Hg10 mi
10:00 PM50 °FClear.6 mph76%30.30 "Hg10 mi
9:30 PM52 °FSunny.6 mph72%30.30 "Hg10 mi
9:00 PM52 °FSunny.6 mph72%30.30 "Hg10 mi
8:30 PM54 °FSunny.6 mph67%30.30 "Hg10 mi
8:00 PM55 °FSunny.8 mph67%30.30 "Hg10 mi
7:30 PM57 °FSunny.8 mph59%30.27 "Hg10 mi
7:00 PM61 °FSunny.6 mph55%30.27 "Hg10 mi
6:30 PM63 °FSunny.8 mph56%30.27 "Hg10 mi
6:00 PM64 °FSunny.10 mph49%30.27 "Hg10 mi
5:00 PM64 °FSunny.13 mph49%30.30 "Hg10 mi
4:30 PM66 °FPassing clouds.13 mph46%30.30 "HgN/A
4:00 PM66 °FPassing clouds.13 mph49%30.30 "HgN/A
3:30 PM66 °FPassing clouds.13 mph46%30.30 "HgN/A
3:00 PM64 °FSunny.13 mph52%30.30 "Hg10 mi
2:30 PM66 °FPassing clouds.13 mph49%30.33 "HgN/A
2:00 PM64 °FPassing clouds.13 mph49%30.33 "HgN/A
1:00 PM64 °FSunny.13 mph52%30.33 "Hg10 mi
12:30 PM63 °FPassing clouds.10 mph59%30.33 "HgN/A
12:00 PM63 °FPassing clouds.10 mph59%30.33 "HgN/A
11:00 AM59 °FPassing clouds.8 mph63%30.33 "HgN/A
Weather by CustomWeather, © 2014

See weather overviewHow to use our weather pages